Вернуться в каталог

STARLINK-35533

АктивенСвязьVLEO
NORAD 66429·PAYLOAD·🇺🇸 United States

Запущен Nov 11, 2025 с Cape Canaveral Space Force Station

Loading…

Ближайшие Пролёты (ближайшие 24 часа)

TLE

СвежийSource: CelesTrak SupGP

Эпоха: Sep 14, 2026, 22:51 UTC

1 66429C 25259H   26257.95256944  .00026406  00000+0  95658-3 0  2576
2 66429  43.0012 285.3547 0001316 263.7313 259.3502 15.27560554    16

Отслеживайте STARLINK-35533 в реальном времени с AllMySat

Download on the App Store